EW7794 Weather Reports


time (UTC)temp
C
wind
direction
speed
KPH
gust
KPH
rain 1hr
cm
rain 24hr
cm
rain mn
cm
humidity
%
barometer
mb
20260504045020 10 225 3.2 11.3 0.00 0.00 0.00 60 1008.3
20260504044019 10 203 3.2 8.0 0.00 0.00 0.00 60 1008.3
20260504043038 10 203 1.6 8.0 0.00 0.00 0.00 59 1008.4
20260504042020 11 203 3.2 14.5 0.00 0.00 0.00 58 1008.3
20260504041020 11 225 4.8 11.3 0.00 0.00 0.00 57 1008.4
20260504040020 11 248 3.2 11.3 0.00 0.00 0.00 57 1008.4
20260504035019 11 225 6.4 19.3 0.00 0.00 0.00 56 1008.4
20260504034019 11 225 6.4 17.7 0.00 0.00 0.00 57 1008.3
20260504033020 11 225 4.8 11.3 0.00 0.00 0.00 56 1008.3
20260504032020 11 180 6.4 24.1 0.00 0.00 0.00 56 1008.4
20260504031019 11 225 4.8 11.3 0.00 0.00 0.00 56 1008.4
20260504030040 11 248 3.2 11.3 0.00 0.00 0.00 55 1008.3
20260504025020 12 248 4.8 12.9 0.00 0.00 0.00 54 1008.4
20260504024019 12 225 6.4 14.5 0.00 0.00 0.00 54 1008.5
20260504023039 12 270 8.0 17.7 0.00 0.00 0.00 54 1008.4
20260504022019 12 270 11.3 22.5 0.00 0.00 0.00 54 1008.5
20260504021020 12 248 6.4 17.7 0.00 0.00 0.00 55 1008.6
20260504020019 12 203 4.8 12.9 0.00 0.00 0.00 53 1008.7
20260504015019 12 225 4.8 11.3 0.00 0.00 0.00 53 1008.7
20260504014019 12 248 8.0 19.3 0.00 0.00 0.00 52 1008.9
20260504013019 12 248 8.0 16.1 0.00 0.00 0.00 52 1008.8
20260504012019 12 270 11.3 27.4 0.00 0.00 0.00 52 1008.8
20260504011019 12 248 11.3 27.4 0.00 0.00 0.00 51 1008.7
20260504010019 12 270 9.7 25.7 0.00 0.00 0.00 53 1008.5
20260504005019 12 248 12.9 25.7 0.00 0.00 0.00 53 1008.4
20260504004019 12 248 14.5 30.6 0.00 0.00 0.00 53 1008.8
20260504003019 12 270 11.3 25.7 0.00 0.00 0.00 55 1008.8
20260504002019 12 270 19.3 41.8 0.00 0.00 0.00 55 1008.8
20260504001019 12 270 12.9 27.4 0.00 0.00 0.00 55 1009.0
20260504000019 12 270 19.3 30.6 0.00 0.00 0.00 53 1008.8
20260503235019 12 270 16.1 24.1 0.00 0.00 0.00 51 1008.8
20260503234119 12 270 12.9 20.9 0.00 0.00 0.00 52 1008.6
20260503233019 12 270 16.1 30.6 0.00 0.00 0.00 51 1008.5
20260503232019 12 270 16.1 29.0 0.00 0.00 0.00 52 1008.5
20260503231019 12 270 19.3 40.2 0.00 0.00 0.00 52 1008.6
20260503230039 12 270 16.1 27.4 0.00 0.00 0.00 50 1008.6
20260503225019 12 270 17.7 30.6 0.00 0.00 0.00 52 1008.6
20260503224019 12 270 20.9 41.8 0.00 0.00 0.00 52 1008.6
20260503223039 12 270 12.9 24.1 0.00 0.00 0.00 52 1008.5
20260503222019 13 270 17.7 45.1 0.00 0.00 0.00 49 1008.5
20260503221019 13 270 22.5 41.8 0.00 0.00 0.00 46 1008.2
20260503220019 13 270 14.5 24.1 0.00 0.00 0.00 47 1008.1
20260503215019 13 270 16.1 46.7 0.00 0.00 0.00 46 1008.2
20260503214019 13 270 16.1 27.4 0.00 0.00 0.00 47 1008.2
20260503213019 13 270 19.3 29.0 0.00 0.00 0.00 46 1008.2
20260503212018 13 270 16.1 45.1 0.00 0.00 0.00 46 1008.1
20260503211038 13 270 16.1 30.6 0.00 0.00 0.00 46 1008.1
20260503210019 13 270 19.3 37.0 0.00 0.00 0.00 45 1008.2
20260503205019 13 270 17.7 27.4 0.00 0.00 0.00 46 1008.2
20260503204039 14 270 11.3 20.9 0.00 0.00 0.00 46 1008.3
20260503203059 13 270 14.5 29.0 0.00 0.00 0.00 47 1008.6
20260503202018 13 270 17.7 40.2 0.00 0.00 0.00 45 1008.6
20260503201038 13 270 17.7 41.8 0.00 0.00 0.00 47 1008.8
20260503200019 13 270 17.7 29.0 0.00 0.00 0.00 46 1008.8
20260503195018 13 270 19.3 32.2 0.00 0.00 0.00 44 1009.0
20260503194018 13 270 14.5 29.0 0.00 0.00 0.00 47 1009.1
20260503193018 12 270 14.5 24.1 0.00 0.00 0.00 47 1009.3
20260503192018 12 270 11.3 24.1 0.00 0.00 0.00 47 1009.5
20260503191018 12 270 12.9 33.8 0.00 0.00 0.00 44 1009.6
20260503190020 12 270 16.1 25.7 0.00 0.00 0.00 45 1009.7
20260503185040 12 270 16.1 29.0 0.00 0.00 0.00 43 1009.9
20260503184018 12 270 14.5 30.6 0.00 0.00 0.00 46 1010.1
20260503183020 12 270 17.7 33.8 0.00 0.00 0.00 47 1010.2
20260503182018 12 270 12.9 24.1 0.00 0.00 0.00 49 1010.5
20260503181040 12 248 8.0 20.9 0.00 0.00 0.00 50 1010.7
20260503180018 11 270 8.0 17.7 0.00 0.00 0.00 49 1010.8
20260503175018 10 270 17.7 29.0 0.00 0.00 0.00 47 1011.0
20260503174018 11 270 14.5 25.7 0.00 0.00 0.00 46 1011.1
20260503173138 11 270 16.1 27.4 0.00 0.00 0.00 46 1011.1
20260503172518 11 270 14.5 27.4 0.00 0.00 0.00 46 1011.1
20260503171519 10 270 17.7 27.4 0.00 0.00 0.00 46 1011.2
20260503170524 11 270 16.1 30.6 0.00 0.00 0.00 46 1011.2
20260503150520 9 270 11.3 22.5 0.00 0.00 0.00 60 1012.2
20260503130519 6 270 9.7 19.3 0.00 0.00 0.00 69 1013.0
20260503110519 1 248 4.8 11.3 0.00 0.00 0.00 77 1012.9
20260503081519 2 270 3.2 9.7 0.00 0.00 0.00 83 1012.6
20260503080519 2 270 4.8 9.7 0.00 0.00 0.00 83 1012.6
20260503072519 2 270 6.4 11.3 0.00 0.00 0.00 82 1012.7
20260503071519 2 270 6.4 12.9 0.00 0.00 0.00 82 1012.7
20260503070519 2 270 6.4 11.3 0.00 0.00 0.00 82 1012.6
20260503054519 3 248 1.6 4.8 0.00 0.00 0.00 79 1013.1
20260503053519 3 293 1.6 6.4 0.00 0.00 0.00 78 1013.1
20260503052518 3 248 3.2 6.4 0.00 0.00 0.00 77 1013.2
20260503051518 3 248 1.6 6.4 0.00 0.00 0.00 77 1013.3
20260503050538 3 270 1.6 4.8 0.00 0.00 0.00 77 1013.4